Location: Chuathbaluk
(61.5726°N, 159.2454°W)
Time: 16:34:40
(UTC+00:00)

NOAA 15 - Pass Details

Date: 18 January 2021
Orbit: 798 x 812 km, 98.7° (Epoch: 05 March)

Event Time Altitude Azimuth Distance (km) Brightness Sun altitude
Rises 03:37:39 0° 129° (SE) 3,308 7.5 -10.1°
Reaches altitude 10° 03:40:05 10° 122° (ESE) 2,382 6.7 -10.3°
Maximum altitude 03:44:57 40° 55° (NE) 1,178 5.0 -10.8°
Drops below altitude 10° 03:49:52 10° 347° (NNW) 2,402 7.0 -11.4°
Sets 03:52:20 0° 341° (NNW) 3,339 7.8 -11.7°
